Location: Waco, TX
(31.5480°N, 97.1670°W)
Time: 19:47:50
(UTC-05:00)

ISS - Pass Details

Date: 13 August 2018
Orbit: 402 x 409 km, 51.6° (Epoch: 21 August)

Event Time Altitude Azimuth Distance (km) Brightness Sun altitude
Rises 19:49:56 0° 317° (NW) 2,318 1.1 4.1°
Reaches altitude 10° 19:52:01 10° 320° (NW) 1,458 0.0 3.6°
Maximum altitude 19:55:17 67° 44° (NE) 439 -3.7 3.0°
Drops below altitude 10° 19:58:31 10° 128° (SE) 1,455 -1.6 2.3°
Sets 20:00:36 0° 131° (SE) 2,312 -0.6 1.9°
